This is the latest recevied weather packets stored in our database for station/object WX4HP-13. If no packets are shown the sender has not sent any weather packets the latest 10 day(s).
| Time | Temp. | Humidity | Pressure | Rain* | Wind** | Luminosity | Snow |
|---|---|---|---|---|---|---|---|
| 1777820095 | 13.89° C | 55% | 1022.1 hPa | 0 mm | - | - | - |
| 1777819796 | 13.89° C | 57% | 1022.2 hPa | 0 mm | - | - | - |
| 1777819497 | 13.89° C | 57% | 1022.2 hPa | 0 mm | - | - | - |
| 1777819196 | 13.33° C | 58% | 1022.2 hPa | 0 mm | - | - | - |
| 1777818896 | 13.33° C | 59% | 1022.2 hPa | 0 mm | - | - | - |
| 1777818597 | 13.33° C | 59% | 1022.3 hPa | 0 mm | - | - | - |
| 1777818297 | 12.78° C | 61% | 1022.3 hPa | 0 mm | - | - | - |
| 1777817996 | 12.78° C | 62% | 1022.2 hPa | 0 mm | - | - | - |
| 1777817697 | 12.22° C | 62% | 1022.2 hPa | 0 mm | - | - | - |
| 1777817397 | 12.78° C | 61% | 1022.2 hPa | 0 mm | - | - | - |
| 1777817097 | 12.78° C | 63% | 1022.1 hPa | 0 mm | - | - | - |
| 1777816796 | 12.22° C | 66% | 1022.1 hPa | 0 mm | - | - | - |
| 1777816496 | 12.22° C | 65% | 1022.1 hPa | 0 mm | - | - | - |
| 1777816196 | 11.67° C | 66% | 1022.1 hPa | 0 mm | - | - | - |
| 1777815964 | 12.22° C | 66% | 1022.1 hPa | 0 mm | - | - | - |
| 1777815897 | 12.22° C | 66% | 1022.1 hPa | 0 mm | - | - | - |
| 1777815596 | 11.67° C | 69% | 1022 hPa | 0 mm | - | - | - |
| 1777815296 | 11.67° C | 67% | 1022 hPa | 0 mm | - | - | - |
| 1777815027 | 11.67° C | 70% | 1022.2 hPa | 0 mm | - | - | - |
| 1777814995 | 11.67° C | 70% | 1022.2 hPa | 0 mm | - | - | - |
| 1777814698 | 11.11° C | 70% | 1022.2 hPa | 0 mm | - | - | - |
| 1777814396 | 11.11° C | 69% | 1022.1 hPa | 0 mm | - | - | - |
| 1777814096 | 11.11° C | 73% | 1022.2 hPa | 0 mm | - | - | - |
| 1777813795 | 10.56° C | 73% | 1022.1 hPa | 0 mm | - | - | - |
| 1777813496 | 10.56° C | 75% | 1021.9 hPa | 0 mm | - | - | - |
* Rain latest hour (hover to see other rain measurements)
** Current wind speed in m/s (hover to see current wind gust speed)